sat.trackr.live / text

‹ back to catalog

STARLINK-4560

NORAD 53691 · 2022-105AV

PAYLOAD ACTIVE UNKNOWN

§ Identity

Operator
Country
US
Launch date
2022-08-31
Launch site
AFWTR
Launch vehicle
Mass (kg)
RCS (m²)

Purposes: comms

External: N2YO · Heavens-Above · Gunter

§ Orbital elements

Epoch: 2026-05-25T02:31:00.278976Z

Period
95.64 min
Inclination
97.4507°
Eccentricity
0.0002178
Mean motion
15.05652656 rev/d
Perigee alt
548.0 km
Apogee alt
551.0 km
Semi-major
6,927.6 km
B*
1.3218e-5
RAAN
26.1531°
Arg perigee
73.4941°
Mean anomaly
286.6525°
Rev number
20,480

§ Raw data

STARLINK-45601 53691U 22105AV  26145.10486434  .00000132  00000+0  13218-4 0  99962 53691  97.4507  26.1531 0002178  73.4941 286.6525 15.05652656204801

JSON: /api/v1/satellites/53691 · /tle

For live sub-satellite position, see the globe view (requires WebGL).

§ Visibility from observer

Set your observer location to see the next 7 days of passes ≥ 10°. The values pass through the URL so the page stays shareable.

No JS? Fill the form by hand. The geolocation button needs JavaScript.